Powrót do katalogu

STARLINK-37870

AktywnyŁącznośćSSO
NORAD 69432·PAYLOAD·🇺🇸 United States

Wystrzelony Jun 7, 2026 z Vandenberg Space Force Base

Loading…

Następne Przeloty (najbliższe 24 godziny)

TLE

ŚwieżeSource: CelesTrak SupGP

Epoka: Sep 14, 2026, 21:42 UTC

1 69432C 26126N   26257.90465278  .00035311  00000+0  10966-2 0  2577
2 69432  97.2845 119.2831 0001898  93.0032 172.2809 15.33406906    16

Śledź STARLINK-37870 w czasie rzeczywistym z AllMySat

Download on the App Store